1484654400.72,45642,5.19,73290.5,-9.59,-43.75,-44.07,0,*56
1484654401.96,45643,5.19,73288.8,-9.61,-43.41,-43.49,0,*56
1484654403.21,45644,5.19,73286.3,-9.59,-43.09,-43.29,0,*50
1484654404.47,45645,5.19,73286.8,-9.61,-43.67,-43.95,0,*55
1484654405.73,45646,5.19,73282.0,-9.61,-43.67,-44.07,0,*5A
1484654406.98,45647,5.19,73280.8,-9.61,-45.73,-46.21,0,*5E
1484654408.24,45648,5.19,73274.0,-9.61,-44.73,-44.99,0,*51
1484654409.47,45649,5.19,73270.3,-9.61,-43.41,-43.61,0,*56
1484654410.73,45650,5.19,73264.0,-9.61,-43.09,-43.75,0,*57
1484654412.01,45651,5.25,73264.0,-9.61,-45.81,-46.15,0,*53
1484654413.24,45652,5.19,73264.8,-9.63,-43.75,-43.81,0,*57
1484654414.47,45653,5.19,73266.5,-9.63,-42.89,-42.95,0,*50
1484654415.7,45654,5.25,73278.0,-9.63,-43.55,-43.95,0,*56
1484654416.9,45655,5.19,73276.0,-9.63,-44.41,-44.79,0,*50
1484654418.14,45656,5.19,73276.5,-9.63,-44.13,-44.33,0,*5A
1484654419.39,45657,5.19,73272.0,-9.63,-43.81,-44.21,0,*54
1484654420.62,45658,5.25,73278.3,-9.63,-43.75,-44.01,0,*52
1484654421.84,45659,5.19,73272.3,-9.63,-43.15,-43.29,0,*58
1484654423.08,45660,5.19,73276.5,-9.63,-42.89,-42.95,0,*50
1484654424.31,45661,5.19,73278.5,-9.61,-43.75,-43.95,0,*50
1484654425.57,45662,5.19,73282.0,-9.61,-44.67,-44.99,0,*5C
1484654426.83,45663,5.25,73288.8,-9.61,-43.67,-43.95,0,*51
1484654428.06,45664,5.25,73286.5,-9.61,-45.13,-45.33,0,*59
1484654429.32,45665,5.19,73276.5,-9.61,-45.21,-45.81,0,*50
1484654430.57,45666,5.19,73274.3,-9.65,-44.33,-44.53,0,*5B
1484654431.84,45667,5.19,73272.0,-9.65,-43.67,-44.01,0,*5B
1484654433.07,45668,5.19,73270.0,-9.63,-43.75,-43.81,0,*5E
1484654434.32,45669,5.19,73270.3,-9.65,-43.55,-43.95,0,*5E
1484654435.58,45670,5.19,73274.3,-9.65,-43.67,-43.95,0,*57
1484654436.81,45671,5.19,73272.8,-9.63,-43.49,-43.55,0,*50
1484654438.04,45672,5.19,73272.0,-9.63,-43.35,-43.55,0,*58
1484654439.27,45673,5.19,73278.8,-9.63,-44.21,-44.61,0,*5B
1484654440.47,45674,5.19,73272.8,-9.63,-46.75,-47.31,0,*59
1484654441.72,45675,5.19,73272.3,-9.67,-46.61,-47.23,0,*5A
1484654442.97,45676,5.19,73274.0,-9.67,-46.07,-46.41,0,*5C
1484654444.2,45677,5.19,73276.8,-9.71,-45.47,-45.87,0,*54
1484654445.43,45678,5.19,73274.0,-9.73,-47.09,-47.31,0,*5E
1484654446.68,45679,5.19,73272.8,-9.75,-45.81,-46.41,0,*5D
1484654447.91,45680,5.19,73276.3,-9.75,-46.89,-47.31,0,*56
1484654449.18,45681,5.25,73276.5,-9.77,-46.01,-46.27,0,*53
1484654450.38,45682,5.19,73274.8,-9.79,-46.75,-47.09,0,*50
1484654451.61,45683,5.19,73272.5,-9.81,-44.87,-45.07,0,*55
1484654452.81,45684,5.19,73272.5,-9.81,-45.87,-46.35,0,*51
1484654454.01,45685,5.19,73274.3,-9.81,-45.33,-45.87,0,*55
1484654455.24,45686,5.19,73272.0,-9.83,-45.95,-46.35,0,*52
1484654456.49,45687,5.19,73272.3,-9.85,-46.61,-47.03,0,*59
1484654457.78,45688,5.19,73272.3,-9.87,-46.89,-47.23,0,*50
1484654459.01,45689,5.19,73272.5,-9.87,-45.13,-45.61,0,*55
1484654460.26,45690,5.25,73278.0,-9.87,-43.81,-44.27,0,*53
1484654461.51,45691,5.19,73278.5,-9.87,-42.89,-43.21,0,*5A
1484654462.79,45692,5.19,73276.0,-9.87,-43.81,-44.01,0,*55
1484654464.02,45693,5.19,73272.5,-9.87,-43.41,-43.49,0,*53
1484654465.26,45694,5.19,73272.3,-9.87,-43.41,-43.49,0,*54
1484654466.49,45695,5.19,73270.5,-9.85,-44.01,-44.27,0,*5B
1484654467.74,45696,5.19,73270.0,-9.83,-42.57,-42.75,0,*5A
1484654468.99,45697,5.19,73274.0,-9.83,-42.57,-43.01,0,*59
1484654470.24,45698,5.19,73278.0,-9.81,-42.83,-43.21,0,*5F
1484654471.45,45699,5.19,73274.8,-9.81,-43.41,-43.75,0,*50
1484654472.7,45700,5.19,73274.5,-9.81,-42.95,-43.21,0,*58
1484654473.96,45701,5.19,73280.8,-9.77,-43.55,-43.75,0,*5C
1484654475.2,45702,5.19,73280.0,-9.77,-42.89,-43.15,0,*59
1484654476.43,45703,5.19,73282.5,-9.79,-42.75,-43.09,0,*58
1484654477.69,45704,5.19,73280.8,-9.77,-42.45,-42.51,0,*5E
1484654478.97,45705,5.25,73282.5,-9.77,-42.31,-42.57,0,*5A
1484654480.23,45706,5.19,73278.0,-9.73,-42.63,-42.69,0,*57
1484654481.46,45707,5.19,73276.3,-9.73,-42.37,-42.63,0,*5D
1484654482.71,45708,5.19,73282.3,-9.73,-42.51,-42.83,0,*5C
1484654483.95,45709,5.19,73280.5,-9.71,-42.13,-42.31,0,*50
1484654485.17,45710,5.25,73284.0,-9.71,-41.99,-42.19,0,*53
1484654486.38,45711,5.19,73282.5,-9.67,-42.13,-42.37,0,*58
1484654487.63,45712,5.19,73286.3,-9.65,-42.25,-42.69,0,*57
1484654488.83,45713,5.19,73286.8,-9.63,-43.95,-44.41,0,*56
1484654490.09,45714,5.19,73284.3,-9.65,-42.75,-43.09,0,*53
1484654491.31,45715,5.19,73284.3,-9.65,-43.35,-43.49,0,*53
1484654492.6,45716,5.25,73284.0,-9.65,-42.05,-42.31,0,*5C
1484654493.85,45717,5.19,73282.8,-9.63,-42.31,-42.57,0,*5C
1484654495.08,45718,5.19,73282.3,-9.63,-42.13,-42.31,0,*53
1484654496.29,45719,5.19,73280.5,-9.59,-41.87,-41.99,0,*54
1484654497.52,45720,5.19,73282.8,-9.59,-41.87,-42.19,0,*55
1484654498.75,45721,5.19,73280.3,-9.59,-42.19,-42.51,0,*5C
1484654500.03,45722,5.25,73284.0,-9.57,-44.21,-44.47,0,*5D
1484654501.29,45723,5.19,73282.0,-9.57,-43.41,-43.55,0,*59
1484654502.52,45724,5.19,73278.0,-9.59,-43.09,-43.75,0,*5E
1484654503.74,45725,5.19,73280.8,-9.59,-44.67,-45.13,0,*56
1484654504.96,45726,5.19,73280.3,-9.59,-44.99,-45.53,0,*50
1484654506.24,45727,5.19,73278.3,-9.61,-43.67,-44.13,0,*59
1484654507.47,45728,5.19,73286.0,-9.61,-43.75,-43.95,0,*5C
1484654508.68,45729,5.19,73280.0,-9.59,-43.49,-43.75,0,*57
1484654509.91,45730,5.19,73282.5,-9.59,-43.21,-43.61,0,*54
1484654511.16,45731,5.19,73284.3,-9.61,-43.21,-43.61,0,*5E
1484654512.39,45732,5.19,73286.3,-9.61,-44.53,-44.87,0,*50
1484654513.65,45733,5.19,73282.8,-9.61,-42.51,-42.69,0,*53
1484654514.88,45734,5.19,73280.3,-9.61,-43.61,-43.87,0,*57
1484654516.14,45735,5.19,73282.5,-9.61,-43.01,-43.21,0,*5C
1484654517.42,45736,5.19,73282.3,-9.61,-42.45,-42.69,0,*53
1484654518.71,45737,5.19,73282.5,-9.57,-42.95,-43.21,0,*57
1484654519.96,45738,5.19,73286.3,-9.57,-43.01,-43.21,0,*54
1484654521.19,45739,5.19,73286.3,-9.59,-42.63,-42.83,0,*57
1484654522.45,45740,5.19,73284.3,-9.57,-43.61,-44.01,0,*58
1484654523.72,45741,5.19,73284.0,-9.57,-44.21,-44.47,0,*58
1484654525.0,45742,5.19,73282.8,-9.57,-43.21,-43.55,0,*58
1484654526.25,45743,5.19,73282.3,-9.57,-42.37,-42.83,0,*55
1484654527.46,45744,5.19,73280.0,-9.55,-41.61,-41.73,0,*5C
1484654528.69,45745,5.19,73284.5,-9.55,-41.93,-41.99,0,*54
1484654529.91,45746,5.19,73286.5,-9.55,-42.83,-43.15,0,*53
1484654531.14,45747,5.25,73288.0,-9.53,-43.15,-43.61,0,*59
1484654532.38,45748,5.19,73286.3,-9.53,-44.61,-44.87,0,*5D
1484654533.61,45749,5.19,73290.8,-9.55,-43.67,-44.07,0,*53
1484654534.82,45750,5.19,73284.0,-9.55,-43.01,-43.15,0,*5F
1484654536.02,45751,5.19,73280.0,-9.55,-42.75,-43.01,0,*59
1484654537.26,45752,5.19,73280.8,-9.55,-42.13,-42.19,0,*52
1484654538.49,45753,5.19,73282.5,-9.51,-42.31,-42.51,0,*5B
1484654539.72,45754,5.19,73276.0,-9.51,-42.31,-42.75,0,*5A
1484654540.92,45755,5.19,73282.0,-9.51,-43.35,-43.75,0,*5F
1484654542.13,45756,5.19,73280.8,-9.51,-43.61,-43.95,0,*53
1484654543.36,45757,5.19,73280.3,-9.51,-44.73,-45.21,0,*5F
1484654544.61,45758,5.19,73278.5,-9.53,-44.21,-44.53,0,*51
1484654545.88,45759,5.19,73278.0,-9.53,-44.73,-45.21,0,*53
1484654547.13,45760,5.19,73276.0,-9.53,-44.73,-44.99,0,*5B
1484654548.39,45761,5.19,73276.5,-9.55,-43.55,-43.67,0,*59
1484654549.62,45762,5.19,73278.5,-9.55,-43.55,-43.87,0,*54
1484654550.84,45763,5.19,73278.0,-9.55,-42.63,-42.83,0,*54
1484654552.09,45764,5.19,73276.0,-9.55,-43.67,-44.01,0,*5A
1484654553.38,45765,5.19,73280.3,-9.53,-44.01,-44.21,0,*58
1484654554.61,45766,5.19,73276.8,-9.55,-42.95,-43.01,0,*53
1484654555.85,45767,5.19,73276.0,-9.55,-42.45,-42.75,0,*5D
1484654557.08,45768,5.19,73280.8,-9.53,-42.75,-42.89,0,*54
1484654558.32,45769,5.19,73278.5,-9.53,-44.13,-44.53,0,*52
1484654559.6,45770,5.19,73280.0,-9.53,-44.33,-44.73,0,*5A
1484654560.86,45771,5.19,73276.0,-9.53,-43.75,-44.01,0,*5B
1484654562.12,45772,5.19,73276.8,-9.53,-43.49,-44.01,0,*57
1484654563.37,45773,5.19,73282.8,-9.53,-43.55,-43.95,0,*51
1484654564.63,45774,5.19,73280.0,-9.53,-43.95,-44.33,0,*51
1484654565.88,45775,5.19,73278.0,-9.53,-42.69,-42.89,0,*55
1484654567.11,45776,5.19,73280.5,-9.53,-42.13,-42.37,0,*5E
1484654568.36,45777,5.19,73280.5,-9.51,-42.19,-42.57,0,*51
1484654569.58,45778,5.19,73282.0,-9.51,-43.35,-43.81,0,*5B
1484654570.82,45779,5.19,73282.8,-9.53,-43.49,-43.95,0,*56
1484654572.04,45780,5.19,73278.5,-9.51,-42.57,-42.89,0,*50
1484654573.3,45781,5.19,73276.0,-9.51,-42.95,-43.09,0,*56
1484654574.52,45782,5.19,73280.5,-9.49,-43.49,-43.87,0,*5A
1484654575.78,45783,5.19,73276.8,-9.49,-43.67,-44.07,0,*58
1484654577.02,45784,5.19,73278.0,-9.49,-44.07,-44.47,0,*5A
1484654578.27,45785,5.19,73278.3,-9.49,-44.67,-45.13,0,*5D
1484654579.48,45786,5.19,73276.8,-9.51,-44.99,-45.21,0,*57
1484654580.72,45787,5.19,73280.3,-9.51,-44.33,-44.73,0,*50
1484654581.98,45788,5.19,73284.0,-9.53,-43.29,-43.61,0,*55
1484654583.24,45789,5.25,73288.0,-9.53,-43.29,-43.61,0,*54
1484654584.5,45790,5.19,73280.8,-9.53,-43.75,-44.21,0,*56
1484654585.78,45791,5.19,73280.3,-9.53,-43.81,-44.33,0,*5F
1484654587.03,45792,5.19,73280.5,-9.53,-44.13,-44.41,0,*55
1484654588.28,45793,5.19,73286.0,-9.53,-43.55,-43.75,0,*51
1484654589.53,45794,5.19,73286.5,-9.51,-42.69,-42.69,0,*56
1484654590.76,45795,5.19,73280.8,-9.51,-42.51,-42.69,0,*5C
1484654591.99,45796,5.25,73284.0,-9.51,-42.19,-42.51,0,*58
1484654593.19,45797,5.19,73282.0,-9.51,-42.13,-42.37,0,*53
1484654594.46,45798,5.19,73280.8,-9.45,-42.13,-42.45,0,*5C
1484654595.7,45799,5.25,73286.8,-9.45,-42.89,-43.01,0,*5F
1484654596.96,45800,5.19,73282.3,-9.45,-42.69,-42.89,0,*5F
1484654598.23,45801,5.19,73282.5,-9.45,-42.51,-42.69,0,*5B
1484654599.47,45802,5.19,73280.5,-9.43,-42.75,-42.83,0,*5C
1484654600.7,45803,5.19,73280.3,-9.43,-42.63,-42.57,0,*53
1484654601.98,45804,5.19,73280.3,-9.41,-42.57,-42.63,0,*56
1484654603.25,45805,5.19,73280.0,-9.41,-42.19,-42.37,0,*5C
1484654604.49,45806,5.19,73284.3,-9.43,-42.75,-42.83,0,*58
1484654605.76,45807,5.19,73284.8,-9.41,-42.57,-42.63,0,*55
1484654607.02,45808,5.19,73282.0,-9.41,-42.05,-42.37,0,*5C
1484654608.25,45809,5.19,73284.0,-9.39,-41.73,-41.93,0,*5D
1484654609.55,45810,5.19,73280.8,-9.37,-41.93,-42.31,0,*5E
1484654610.79,45811,5.19,73284.0,-9.37,-42.13,-42.37,0,*52
1484654612.06,45812,5.19,73286.5,-9.33,-41.81,-42.13,0,*5B
1484654613.29,45813,5.19,73282.5,-9.35,-42.05,-42.13,0,*53
1484654614.57,45814,5.19,73280.0,-9.33,-42.13,-42.31,0,*55
1484654615.83,45815,5.19,73280.0,-9.33,-42.25,-42.45,0,*52
1484654617.1,45816,5.19,73284.0,-9.33,-42.51,-42.83,0,*58
1484654618.34,45817,5.19,73280.0,-9.33,-42.89,-43.35,0,*50
1484654619.64,45818,5.19,73286.0,-9.33,-43.09,-43.09,0,*59
1484654620.9,45819,5.19,73282.8,-9.33,-42.05,-42.13,0,*5F
1484654622.17,45820,5.19,73284.8,-9.29,-42.19,-42.37,0,*55
1484654623.44,45821,5.19,73284.5,-9.29,-41.87,-42.05,0,*51
1484654624.66,45822,5.19,73284.0,-9.31,-42.25,-42.63,0,*50
1484654625.93,45823,5.19,73280.8,-9.29,-42.05,-42.25,0,*58
1484654627.17,45824,5.19,73282.8,-9.27,-42.13,-42.19,0,*59
1484654628.39,45825,5.19,73282.8,-9.27,-41.99,-42.13,0,*53
1484654629.62,45826,5.19,73280.0,-9.23,-41.81,-42.13,0,*5D
1484654630.88,45827,5.19,73280.3,-9.23,-41.67,-41.93,0,*5F
1484654632.16,45828,5.19,73284.5,-9.21,-41.67,-41.93,0,*52
1484654633.43,45829,5.19,73284.8,-9.19,-41.67,-41.93,0,*58
1484654634.67,45830,5.19,73286.0,-9.19,-41.23,-41.49,0,*57
1484654635.94,45831,5.25,73288.0,-9.17,-41.41,-41.55,0,*51
1484654637.21,45832,5.19,73284.8,-9.17,-41.81,-41.87,0,*51
1484654638.5,45833,5.19,73286.0,-9.17,-41.67,-41.81,0,*5E
1484654639.76,45834,5.19,73286.0,-9.15,-41.41,-41.55,0,*56
1484654641.03,45835,5.19,73286.5,-9.15,-41.61,-41.67,0,*54
1484654642.32,45836,5.19,73284.8,-9.15,-41.55,-41.81,0,*58
1484654643.54,45837,5.19,73288.0,-9.13,-41.49,-41.73,0,*5F
1484654644.8,45838,5.19,73284.0,-9.11,-41.81,-41.99,0,*52
1484654646.04,45839,5.19,73286.8,-9.13,-41.61,-41.93,0,*55
1484654647.3,45840,5.19,73284.3,-9.11,-41.73,-41.93,0,*5A
1484654648.53,45841,5.19,73290.3,-9.11,-41.99,-42.13,0,*54
1484654649.78,45842,5.19,73284.8,-9.09,-41.67,-41.87,0,*51
1484654651.03,45843,5.19,73288.5,-9.09,-41.67,-41.87,0,*50
1484654652.3,45844,5.19,73288.3,-9.07,-41.41,-41.67,0,*53
1484654653.56,45845,5.19,73290.0,-9.07,-41.55,-41.87,0,*59
1484654654.81,45846,5.19,73290.0,-9.05,-41.41,-41.67,0,*53
1484654656.05,45847,5.19,73290.0,-9.05,-41.35,-41.49,0,*5D
1484654657.28,45848,5.19,73284.3,-9.03,-41.41,-41.61,0,*5D
1484654658.54,45849,5.19,73286.8,-9.03,-41.49,-41.81,0,*5A
1484654659.8,45850,5.19,73286.8,-9.03,-41.61,-41.81,0,*58
1484654661.04,45851,5.19,73286.0,-9.03,-41.61,-41.87,0,*5F
1484654662.3,45852,5.19,73288.3,-8.99,-41.29,-41.55,0,*5D
1484654663.56,45853,5.19,73288.8,-8.99,-41.55,-41.73,0,*53
1484654664.8,45854,5.19,73290.5,-8.97,-41.61,-41.81,0,*50
1484654666.03,45855,5.19,73288.0,-8.97,-41.55,-41.73,0,*5B
1484654667.27,45856,5.19,73288.3,-8.97,-41.81,-41.99,0,*55
1484654668.51,45857,5.19,73284.8,-8.97,-41.93,-41.99,0,*57
1484654669.76,45858,5.19,73286.5,-8.95,-41.87,-41.93,0,*55
1484654671.02,45859,5.19,73288.8,-8.95,-42.25,-42.45,0,*57
1484654672.23,45860,5.19,73286.3,-8.93,-41.87,-42.13,0,*53
1484654673.52,45861,5.19,73288.0,-8.95,-41.67,-41.93,0,*51
1484654674.76,45862,5.19,73286.3,-8.93,-42.31,-42.63,0,*58
1484654675.99,45863,5.19,73290.3,-8.93,-42.05,-42.25,0,*5C
1484654677.24,45864,5.19,73288.5,-8.93,-42.13,-42.31,0,*59
1484654678.48,45865,5.19,73286.5,-8.93,-42.13,-42.31,0,*58
1484654679.74,45866,5.19,73288.3,-8.91,-41.81,-41.99,0,*50
1484654681.0,45867,5.19,73288.3,-8.89,-41.81,-41.93,0,*52
1484654682.21,45868,5.19,73284.8,-8.89,-41.99,-41.99,0,*5E
1484654683.44,45869,5.19,73290.8,-8.89,-41.93,-42.13,0,*54
1484654684.68,45870,5.19,73288.5,-8.89,-41.81,-41.99,0,*5E
1484654685.89,45871,5.19,73288.3,-8.89,-41.61,-41.73,0,*55
1484654687.13,45872,5.25,73294.0,-8.89,-41.55,-41.73,0,*51
1484654688.34,45873,5.19,73288.8,-8.89,-41.41,-41.73,0,*55
1484654689.6,45874,5.19,73288.0,-8.85,-41.35,-41.55,0,*59
1484654690.87,45875,5.19,73288.5,-8.87,-41.73,-41.55,0,*58
1484654692.1,45876,5.19,73288.3,-8.85,-41.87,-41.93,0,*58
1484654693.37,45877,5.19,73280.3,-8.85,-41.55,-41.67,0,*5D
1484654694.61,45878,5.19,73286.0,-8.85,-41.67,-41.73,0,*56
1484654695.84,45879,5.19,73286.3,-8.85,-41.93,-42.13,0,*59
1484654697.06,45880,5.19,73290.8,-8.85,-42.13,-42.25,0,*51
1484654698.33,45881,5.19,73288.8,-8.81,-42.13,-42.31,0,*51
1484654699.59,45882,5.19,73288.5,-8.83,-42.31,-42.57,0,*50
1484654700.82,45883,5.19,73290.3,-8.83,-42.57,-42.75,0,*51
1484654702.09,45884,5.19,73286.5,-8.83,-42.57,-42.95,0,*58
1484654703.3,45885,5.19,73286.0,-8.83,-42.13,-42.25,0,*52
1484654704.56,45886,5.19,73290.5,-8.81,-41.93,-42.13,0,*5D
1484654705.79,45887,5.19,73288.5,-8.81,-41.73,-41.73,0,*57
1484654707.02,45888,5.19,73290.3,-8.81,-41.29,-41.49,0,*5E
1484654708.29,45889,5.19,73290.8,-8.81,-41.49,-41.67,0,*55
1484654709.57,45890,5.19,73290.8,-8.81,-42.05,-42.31,0,*56
1484654710.83,45891,5.19,73286.0,-8.81,-42.05,-42.25,0,*52
1484654712.09,45892,5.19,73290.3,-8.81,-41.87,-42.05,0,*5A
1484654713.33,45893,5.25,73288.8,-8.75,-41.93,-42.13,0,*52
1484654714.62,45894,5.19,73288.3,-8.77,-41.81,-41.81,0,*5C
1484654715.88,45895,5.19,73290.5,-8.75,-41.55,-41.55,0,*5F
1484654717.09,45896,5.19,73290.0,-8.75,-41.61,-41.73,0,*5F
1484654718.33,45897,5.19,73286.8,-8.75,-41.55,-41.73,0,*59
1484654719.56,45898,5.19,73288.3,-8.75,-41.61,-41.81,0,*5C
1484654720.83,45899,5.19,73286.8,-8.73,-41.93,-41.99,0,*5F
1484654722.09,45900,5.19,73286.0,-8.73,-42.75,-42.95,0,*5A
1484654723.39,45901,5.19,73290.0,-8.73,-42.19,-42.19,0,*55
1484654724.67,45902,5.19,73288.3,-8.73,-41.81,-41.93,0,*55
1484654725.91,45903,5.19,73286.3,-8.73,-41.99,-42.13,0,*56
1484654727.17,45904,5.19,73286.5,-8.73,-41.93,-42.13,0,*5B
1484654728.43,45905,5.19,73286.5,-8.73,-41.81,-41.99,0,*58
1484654729.72,45906,5.19,73286.5,-8.73,-41.93,-42.19,0,*53
1484654731.01,45907,5.19,73282.0,-8.73,-42.57,-42.95,0,*5D
1484654732.25,45908,5.19,73282.8,-8.71,-42.25,-42.57,0,*5B
1484654733.53,45909,5.19,73282.3,-8.73,-41.81,-41.93,0,*5E
1484654734.79,45910,5.19,73282.8,-8.73,-41.93,-42.13,0,*5E
1484654736.03,45911,5.19,73286.8,-8.71,-42.05,-42.51,0,*57
1484654737.31,45912,5.19,73284.8,-8.73,-42.19,-42.45,0,*5E
1484654738.55,45913,5.19,73286.0,-8.71,-41.87,-41.93,0,*51
1484654739.76,45914,5.19,73286.3,-8.71,-41.73,-41.87,0,*58
1484654740.98,45915,5.19,73286.0,-8.71,-42.51,-42.75,0,*54
1484654742.21,45916,5.19,73284.3,-8.71,-42.69,-42.89,0,*5F
1484654743.45,45917,5.19,73286.0,-8.71,-42.37,-42.69,0,*5B
1484654744.68,45918,5.19,73284.0,-8.71,-42.05,-42.37,0,*5E
1484654745.89,45919,5.19,73280.8,-8.71,-42.25,-42.51,0,*5D
1484654747.13,45920,5.19,73284.3,-8.71,-41.93,-42.13,0,*5F
1484654748.39,45921,5.19,73284.5,-8.69,-41.93,-42.13,0,*57
1484654749.65,45922,5.25,73286.8,-8.69,-42.51,-42.69,0,*54
1484654750.94,45923,5.19,73280.5,-8.69,-42.31,-42.57,0,*5E
1484654752.23,45924,5.19,73280.0,-8.69,-41.93,-42.05,0,*55
1484654753.49,45925,5.19,73280.8,-8.69,-41.87,-42.05,0,*51
1484654754.72,45926,5.19,73282.3,-8.67,-41.87,-42.05,0,*5C
1484654755.96,45927,5.19,73280.8,-8.67,-41.87,-41.81,0,*52
1484654757.22,45928,5.19,73282.3,-8.69,-42.37,-42.57,0,*53
1484654758.48,45929,5.19,73276.8,-8.69,-42.31,-42.51,0,*52
1484654759.75,45930,5.19,73282.5,-8.67,-42.05,-42.19,0,*5F
1484654760.98,45931,5.19,73282.3,-8.67,-41.81,-41.87,0,*55
1484654762.22,45932,5.19,73280.5,-8.67,-41.99,-42.31,0,*51
1484654763.44,45933,5.19,73280.0,-8.67,-41.87,-41.99,0,*5E
1484654764.7,45934,5.19,73280.8,-8.65,-41.87,-42.05,0,*5D
1484654765.93,45935,5.19,73280.0,-8.65,-41.99,-41.99,0,*55
1484654767.19,45936,5.19,73280.0,-8.65,-41.67,-41.99,0,*57
1484654768.47,45937,5.19,73280.3,-8.65,-41.81,-41.81,0,*57
1484654769.73,45938,5.19,73282.8,-8.65,-41.61,-41.81,0,*56
1484654770.94,45939,5.19,73278.3,-8.63,-41.73,-41.99,0,*5B
1484654772.17,45940,5.19,73284.3,-8.63,-41.81,-41.99,0,*58
1484654773.41,45941,5.19,73276.8,-8.63,-41.81,-41.99,0,*59
1484654774.66,45942,5.19,73280.5,-8.63,-41.81,-41.93,0,*50
1484654775.89,45943,5.19,73282.3,-8.63,-41.93,-42.13,0,*59
1484654777.12,45944,5.19,73284.8,-8.63,-42.13,-42.45,0,*56
1484654778.41,45945,5.19,73286.8,-8.61,-42.19,-42.45,0,*5F
1484654779.68,45946,5.19,73286.8,-8.61,-42.57,-42.75,0,*55
1484654780.89,45947,5.19,73284.0,-8.63,-42.25,-42.63,0,*54
1484654782.13,45948,5.19,73286.3,-8.63,-43.21,-43.41,0,*5F
1484654783.41,45949,5.19,73284.3,-8.65,-43.29,-43.55,0,*55
1484654784.65,45950,5.19,73284.5,-8.63,-42.75,-42.95,0,*5E
1484654785.94,45951,5.19,73286.0,-8.65,-42.31,-42.45,0,*54
1484654787.17,45952,5.19,73280.8,-8.63,-42.13,-42.45,0,*51
1484654788.38,45953,5.19,73280.5,-8.63,-41.99,-42.13,0,*52
1484654789.61,45954,5.19,73280.3,-8.63,-41.93,-42.25,0,*5A
1484654790.84,45955,5.19,73280.3,-8.63,-42.57,-42.75,0,*55
1484654792.07,45956,5.19,73280.8,-8.63,-42.37,-42.57,0,*50
1484654793.31,45957,5.19,73282.8,-8.63,-42.63,-42.95,0,*5E
1484654794.57,45958,5.19,73282.3,-8.63,-43.29,-43.55,0,*53
1484654795.78,45959,5.19,73284.0,-8.63,-42.75,-43.01,0,*5B
1484654797.01,45960,5.19,73290.5,-8.63,-42.75,-43.21,0,*53
1484654798.22,45961,5.19,73286.8,-8.63,-41.99,-42.25,0,*56
1484654799.45,45962,5.19,73284.0,-8.63,-42.19,-42.37,0,*5D
1484654800.66,45963,5.19,73284.5,-8.63,-43.15,-43.41,0,*51
1484654801.87,45964,5.19,73280.5,-8.63,-42.13,-42.37,0,*51
1484654803.1,45965,5.19,73284.5,-8.63,-42.37,-42.57,0,*50
1484654804.34,45966,5.19,73286.3,-8.65,-42.51,-42.63,0,*52
1484654805.58,45967,5.19,73282.5,-8.65,-42.25,-42.63,0,*50
1484654806.79,45968,5.19,73284.8,-8.63,-41.99,-42.25,0,*5F
1484654808.01,45969,5.19,73284.0,-8.63,-42.37,-42.63,0,*5B
1484654809.27,45970,5.19,73286.0,-8.61,-42.83,-43.01,0,*5B
1484654810.47,45971,5.19,73284.0,-8.63,-42.63,-43.01,0,*56
1484654811.71,45972,5.19,73288.5,-8.63,-42.25,-42.45,0,*56
1484654812.94,45973,5.19,73288.5,-8.63,-42.19,-42.37,0,*5D
1484654814.17,45974,5.19,73284.8,-8.63,-42.13,-42.45,0,*55
1484654815.43,45975,5.19,73284.5,-8.61,-42.37,-42.57,0,*53
1484654816.72,45976,5.19,73284.0,-8.61,-42.19,-42.45,0,*5F
1484654817.95,45977,5.19,73288.0,-8.59,-41.87,-42.05,0,*55
1484654819.21,45978,5.19,73284.8,-8.61,-42.13,-42.45,0,*5B
1484654820.42,45979,5.19,73288.3,-8.59,-41.73,-41.73,0,*52
1484654821.62,45980,5.19,73288.3,-8.59,-41.73,-41.87,0,*5F
1484654822.85,45981,5.19,73290.8,-8.59,-41.87,-42.05,0,*5C
1484654824.08,45982,5.19,73288.3,-8.59,-41.87,-42.05,0,*5F
1484654825.34,45983,5.19,73288.5,-8.59,-41.93,-42.19,0,*56
1484654826.56,45984,5.19,73288.8,-8.59,-41.73,-41.93,0,*5E
1484654827.8,45985,5.19,73288.3,-8.59,-42.13,-42.31,0,*51
1484654829.03,45986,5.19,73280.5,-8.55,-42.19,-42.37,0,*52
1484654830.27,45987,5.19,73284.3,-8.55,-42.19,-42.37,0,*53
1484654831.53,45988,5.19,73284.3,-8.55,-41.93,-42.31,0,*5B
1484654832.79,45989,5.19,73288.5,-8.51,-42.51,-42.83,0,*5A
1484654834.05,45990,5.19,73288.8,-8.55,-42.95,-43.29,0,*5F
1484654835.28,45991,5.19,73290.0,-8.55,-42.37,-42.57,0,*5E
1484654836.52,45992,5.19,73290.3,-8.55,-42.19,-42.51,0,*57
1484654837.74,45993,5.19,73286.8,-8.55,-41.73,-41.93,0,*54
1484654838.95,45994,5.19,73288.8,-8.55,-42.13,-42.37,0,*5B
1484654840.19,45995,5.19,73288.0,-8.55,-42.13,-42.31,0,*5C
1484654841.45,45996,5.19,73286.3,-8.55,-41.93,-42.19,0,*5E
1484654842.71,45997,5.19,73290.3,-8.51,-41.81,-41.99,0,*53
1484654843.97,45998,5.19,73286.5,-8.51,-42.51,-42.83,0,*5A
1484654845.21,45999,5.19,73284.5,-8.51,-43.75,-44.07,0,*56
1484654846.45,46000,5.19,73284.8,-8.55,-43.09,-43.41,0,*56
1484654847.69,46001,5.19,73280.8,-8.55,-42.95,-43.35,0,*50
1484654848.93,46002,5.19,73284.5,-8.55,-42.31,-42.51,0,*5E
1484654850.16,46003,5.19,73284.5,-8.55,-42.51,-42.83,0,*56
1484654851.4,46004,5.19,73286.5,-8.55,-42.31,-42.51,0,*58
1484654852.66,46005,5.19,73286.5,-8.51,-42.25,-42.45,0,*5D
1484654853.89,46006,5.19,73284.3,-8.55,-42.57,-42.75,0,*5C
1484654855.15,46007,5.19,73282.5,-8.55,-42.05,-42.31,0,*5A
1484654856.41,46008,5.19,73284.5,-8.51,-42.45,-42.63,0,*52
1484654857.65,46009,5.19,73284.0,-8.55,-42.31,-42.51,0,*55
1484654858.89,46010,5.19,73284.8,-8.51,-42.13,-42.51,0,*59
1484654860.15,46011,5.19,73282.5,-8.51,-42.25,-42.45,0,*58
1484654861.44,46012,5.19,73284.3,-8.51,-42.05,-42.31,0,*5A
1484654862.68,46013,5.19,73284.8,-8.55,-42.19,-42.51,0,*54
1484654863.92,46014,5.19,73292.8,-8.51,-42.51,-42.63,0,*5A
1484654865.19,46015,5.19,73284.3,-8.51,-42.45,-42.63,0,*5E
1484654866.42,46016,5.19,73288.5,-8.55,-42.75,-43.09,0,*57
1484654867.67,46017,5.19,73286.5,-8.51,-42.25,-42.63,0,*5A
1484654868.9,46018,5.19,73284.8,-8.51,-41.87,-42.13,0,*59
1484654870.17,46019,5.19,73290.3,-8.51,-42.25,-42.31,0,*53
1484654871.41,46020,5.19,73288.0,-8.51,-41.87,-41.99,0,*53
1484654872.67,46021,5.19,73286.5,-8.51,-41.67,-41.99,0,*5C
1484654873.9,46022,5.19,73288.5,-8.51,-41.41,-41.49,0,*56
1484654875.14,46023,5.19,73288.0,-8.49,-42.05,-42.25,0,*54
1484654876.37,46024,5.25,73292.3,-8.49,-41.93,-42.25,0,*5F
1484654877.61,46025,5.19,73286.3,-8.47,-41.61,-41.73,0,*5D
1484654878.85,46026,5.19,73284.5,-8.49,-41.93,-42.25,0,*5D
1484654880.09,46027,5.19,73280.3,-8.45,-42.19,-42.37,0,*52
1484654881.38,46028,5.19,73276.3,-8.47,-42.19,-42.45,0,*5A
1484654882.61,46029,5.19,73284.5,-8.49,-42.45,-42.63,0,*58
1484654883.85,46030,5.19,73284.0,-8.49,-42.25,-42.45,0,*52
1484654885.08,46031,5.19,73282.0,-8.49,-42.57,-42.63,0,*52
1484654886.35,46032,5.19,73284.8,-8.47,-42.95,-43.15,0,*51
1484654887.62,46033,5.19,73280.5,-8.47,-42.45,-42.63,0,*5D
1484654888.86,46034,5.19,73282.3,-8.45,-43.15,-43.55,0,*58
1484654890.07,46035,5.19,73282.5,-8.49,-44.27,-44.53,0,*52
1484654891.3,46036,5.19,73282.3,-8.49,-43.87,-44.21,0,*59
1484654892.51,46037,5.19,73284.0,-8.55,-45.41,-45.61,0,*5C
1484654893.77,46038,5.19,73282.8,-8.55,-45.81,-46.15,0,*5F
1484654894.99,46039,5.19,73282.3,-8.59,-45.47,-45.87,0,*50
1484654896.25,46040,5.19,73276.3,-8.61,-43.49,-43.81,0,*5D
1484654897.54,46041,5.19,73276.3,-8.61,-44.67,-44.93,0,*53
1484654898.78,46042,5.19,73282.8,-8.63,-44.61,-44.93,0,*54
1484654900.03,46043,5.19,73278.0,-8.65,-45.73,-46.21,0,*5A
1484654901.29,46044,5.19,73280.5,-8.65,-43.67,-43.87,0,*57
1484654902.52,46045,5.19,73280.0,-8.67,-42.89,-43.29,0,*51
1484654903.76,46046,5.19,73280.3,-8.67,-44.27,-44.33,0,*5C
1484654905.0,46047,5.19,73280.0,-8.69,-45.67,-45.61,0,*50
1484654906.28,46048,5.19,73276.3,-8.69,-45.27,-45.61,0,*5B